Location: DARK SKY Beskydy - Park tmavé oblohy, www.darkskybeskydy.cz
(49.4926°N, 18.5016°E)
Time: 12:27:50
(UTC+02:00)

Vanguard 1 - Pass Details

Date: 22 February 2024
Orbit: 653 x 3825 km, 34.2° (Epoch: 12 April)

Event Time Altitude Azimuth Distance (km) Brightness Sun altitude
Rises 21:47:18 0° 248° (WSW) 6,292 14.4 -42.1°
Reaches altitude 10° 21:51:02 10° 243° (WSW) 5,628 14.0 -42.5°
Enters shadow 22:04:59 48° 200° (SSW) 4,226 12.9 -44.0°
Maximum altitude 22:08:52 52° 175° (S) 4,246 - -44.4°
Drops below altitude 10° 22:30:41 10° 108° (ESE) 6,734 - -46.5°
Sets 22:35:43 0° 104° (ESE) 7,548 - -47.0°
